Regional Weather Roundup
Issued by NWS

Home | Current Version | Previous Version | Graphics & Text | Print | Product List | Glossary On
Versions: 1 2 3 4 5 6 7 8 9 10 11 12 13 14 15 16 17 18 19 20 21 22 23 24 25 26 27 28 29 30 31 32 33 34 35 36 37 38 39 40 41 42 43 44 45 46 47 48 49 50
000
ASUS43 KLMK 281810
RWRKY
KENTUCKY REGIONAL WEATHER ROUNDUP
NATIONAL WEATHER SERVICE LOUISVILLE KY
200 PM EDT SUN AUG 28 2016

NOTE "FAIR" INDICATES FEW OR NO CLOUDS BELOW 12,000 FEET
WITH NO SIGNIFICANT WEATHER AND/OR OBSTRUCTIONS TO VISIBILITY.

KYZ001>023-026-027-061>063-070>075-281900-
WESTERN AND SOUTH CENTRAL KENTUCKY

CITY           SKY/WX    TMP DP  RH WIND       PRES   REMARKS
PADUCAH        SUNNY     91  74  57 NE7       30.14F HX 100
HENDERSON      CLOUDY    90  73  58 NE3       30.14S HX  98
OWENSBORO      MOSUNNY   93  76  57 SE3       30.16F HX 105
HOPKINSVILLE   MOSUNNY   90  70  52 VRB2      30.15F HX  95
BOWLING GREEN  MOSUNNY   93  71  48 CALM      30.16F HX 100
GLASGOW        SUNNY     91  72  52 E5        30.17F HX  98
$$

KYZ024-025-028>034-038-045-046-053-281900-
NORTH CENTRAL KENTUCKY

CITY           SKY/WX    TMP DP  RH WIND       PRES   REMARKS
LOUISVILLE/SDF MOSUNNY   93  72  50 NE5       30.16F HX 101
LOUISVILLE/LOU SUNNY     93  72  50 N3        30.17F HX 101
FORT KNOX      MOSUNNY   89  73  59 SE3       30.17F HX  97
$$

KYZ035>037-039>044-047>052-055>060-089>105-281900-
NORTHEAST KENTUCKY

CITY           SKY/WX    TMP DP  RH WIND       PRES   REMARKS
LEXINGTON      MOSUNNY   92  72  51 VRB3      30.19F HX  99
COVINGTON      MOSUNNY   89  72  56 E8        30.20F HX  96
FRANKFORT      MOSUNNY   92  73  53 VRB6      30.18F HX 100
$$

KYZ054-064>069-076>088-106>120-281900-
SOUTHEAST KENTUCKY

CITY           SKY/WX    TMP DP  RH WIND       PRES   REMARKS
JACKSON        MOSUNNY   88  73  61 CALM      30.22F HX  95
LONDON         PTSUNNY   86  67  52 CALM      30.21F
SOMERSET       SUNNY     88  68  51 CALM      30.20F HX  91
MIDDLESBORO    PTSUNNY   88  73  59 N5        30.20F HX  95
MONTICELLO     PTCLDY   N/A N/A N/A N15       30.20F
$$





USA.gov is the U.S. government's official web portal to all federal, state and local government web resources and services.